sim
Sign-in with your pilot id or email,
or register
Callsign
Passwort

Schedule Details

Flight Number: RYR3741 (2)
Departure: Birmingham Airport (EGBB) at 13:30
Arrival: Fuerteventura Airport (GCFV) at 17:40
Route: Ryanair Passenger Schedule. Enter filed route here before submitting Pirep.

Weather Information
Getting current METAR information for EGBB 212150Z 14006KT CAVOK 11/05 Q1014
Getting current METAR information for GCFV 212130Z 34010KT 300V360 9999 SCT029 19/13 Q1015

Schedule Frequency

Route Map